CW5456 Hansville WA US current weather conditions

sailwx.info

Wind from 332 at 8 knots gusting 9

Air temperature 7.8° C
Dewpoint 4.9° C

Last reported at 2017-Mar-26 02:50 UTC.
Time now 2017-Mar-26 03:35 UTC

Location: N 47°55' W 122°35'.
View on Google Maps.

See reports from other nearby stations

  
Tides and Currents Weather Stations Pressure Air Temp Water Temp Dewpoint Dewpoint Depression Visibility Wind Speed Wind Dir Waves Ship Positions
date/time (UTC)wind fromknots sea level pressurealtimeterstation pressurevisibilityair tempwater tempwave heightnotes
2017-Mar-26 02:50 332 8 gusting 9 7.8
2017-Mar-26 02:45 293 5 gusting 9 7.8
2017-Mar-26 02:40 292 6 gusting 9 7.8
2017-Mar-26 02:35 263 8 gusting 9 7.8
2017-Mar-26 02:30 327 4 gusting 10 7.8
2017-Mar-26 02:25 285 8 gusting 10 7.8
2017-Mar-26 02:20 327 6 gusting 11 7.8
2017-Mar-26 02:15 278 9 gusting 11 7.2
2017-Mar-26 02:10 305 7 gusting 10 7.2
2017-Mar-26 02:05 312 6 gusting 9 7.2
2017-Mar-26 02:00 262 6 gusting 11 7.8
2017-Mar-26 01:55 301 5 gusting 11 7.8
2017-Mar-26 01:50 268 9 gusting 12 7.8
2017-Mar-26 01:45 272 9 gusting 13 7.8
2017-Mar-26 01:40 248 9 gusting 13 7.8
2017-Mar-26 01:35 318 7 gusting 13 7.8
2017-Mar-26 01:30 327 8 gusting 14 7.8
2017-Mar-26 01:25 308 12 gusting 14 7.8
2017-Mar-26 01:20 295 13 gusting 15 7.8
2017-Mar-26 01:15 332 13 gusting 15 7.8
2017-Mar-26 01:10 309 7 gusting 13 7.8
2017-Mar-26 01:05 255 9 gusting 12 7.8
2017-Mar-26 01:00 291 9 gusting 13 7.8
2017-Mar-26 00:55 287 8 gusting 13 7.8
2017-Mar-26 00:50 322 10 gusting 13 7.8
2017-Mar-26 00:45 264 12 gusting 13 7.8
2017-Mar-26 00:40 316 8 gusting 13 7.8
2017-Mar-26 00:35 293 13 gusting 14 7.8
2017-Mar-26 00:30 272 13 gusting 14 7.8
2017-Mar-26 00:25 300 10 gusting 13 7.8
2017-Mar-26 00:20 242 6 gusting 13 7.8
2017-Mar-26 00:15 236 7 gusting 13 7.8
2017-Mar-26 00:10 327 5 gusting 13 7.8
2017-Mar-26 00:05 281 8 gusting 13 7.8
2017-Mar-26 00:00 299 10 gusting 11 7.8
2017-Mar-25 23:55 308 8 gusting 12 7.8
2017-Mar-25 23:45 327 7 gusting 11 7.8
2017-Mar-25 23:40 233 3 gusting 13 7.8
2017-Mar-25 23:35 249 9 gusting 13 7.8
2017-Mar-25 23:30 258 11 gusting 13 7.8
2017-Mar-25 23:25 249 10 gusting 13 7.8
2017-Mar-25 23:20 272 9 gusting 13 7.8
2017-Mar-25 23:10 252 3 gusting 14 7.8
2017-Mar-25 23:00 299 12 gusting 16 7.8
2017-Mar-25 22:55 268 13 gusting 16 7.8
2017-Mar-25 22:50 295 13 gusting 14 7.8
2017-Mar-25 22:45 297 10 gusting 15 7.8
2017-Mar-25 22:40 284 13 gusting 16 7.2
2017-Mar-25 22:35 301 13 gusting 16 7.8
2017-Mar-25 22:25 262 14 gusting 17 7.8
2017-Mar-25 22:20 245 13 gusting 17 7.8
2017-Mar-25 22:15 284 12 gusting 16 7.8
2017-Mar-25 22:10 245 6 gusting 14 7.8
2017-Mar-25 22:05 237 8 gusting 14 7.8
2017-Mar-25 22:00 239 6 gusting 13 7.8
2017-Mar-25 21:55 225 4 gusting 13 8.3
2017-Mar-25 21:50 303 7 gusting 17 8.3
2017-Mar-25 21:45 225 1 gusting 17 8.9
2017-Mar-25 21:40 276 7 gusting 13 9.4
2017-Mar-25 21:35 258 6 gusting 13 10.6
2017-Mar-25 21:30 276 7 gusting 13 11.7
2017-Mar-25 21:25 162 0 gusting 8 12.8
2017-Mar-25 21:20 181 12.8
2017-Mar-25 21:15 179 6 gusting 11 13.3
2017-Mar-25 21:10 157 4 gusting 13 13.3
2017-Mar-25 21:05 098 6 gusting 13 13.3
2017-Mar-25 21:00 118 2 gusting 13 12.8
2017-Mar-25 20:55 120 1 gusting 18 12.8
2017-Mar-25 20:50 137 13 gusting 18 12.2
2017-Mar-25 20:45 117 3 gusting 12 11.1
2017-Mar-25 20:40 102 1 gusting 12 10.6
2017-Mar-25 20:35 009 1 gusting 4 9.4
2017-Mar-25 20:30 357 0 gusting 4 9.4
2017-Mar-25 20:25 354 1 gusting 4 9.4
2017-Mar-25 20:20 025 1 gusting 4 9.4
2017-Mar-25 20:15 025 2 gusting 4 9.4
2017-Mar-25 20:10 025 4 gusting 4 9.4
2017-Mar-25 20:05 026 2 gusting 6 9.4
2017-Mar-25 20:00 027 4 gusting 6 8.9
2017-Mar-25 19:55 039 1 gusting 4 8.9
2017-Mar-25 19:50 035 3 gusting 5 8.9
2017-Mar-25 19:45 043 1 gusting 5 8.9
2017-Mar-25 19:40 025 4 gusting 6 8.9
2017-Mar-25 19:35 025 5 gusting 7 8.9
2017-Mar-25 19:30 023 4 gusting 7 8.9
2017-Mar-25 19:25 023 6 gusting 9 8.3
2017-Mar-25 19:20 018 6 gusting 10 8.3
2017-Mar-25 19:15 008 8 gusting 10 8.3
2017-Mar-25 19:10 010 9 gusting 12 8.3
2017-Mar-25 19:05 006 7 gusting 12 8.9
2017-Mar-25 19:00 8.9
2017-Mar-25 18:55 027 8 gusting 13 9.4
2017-Mar-25 18:50 356 7 gusting 13 10.0
2017-Mar-25 18:45 129 9 gusting 12 10.6
2017-Mar-25 18:40 036 1 gusting 6 10.6
2017-Mar-25 18:35 004 1 gusting 4 10.0
2017-Mar-25 18:30 010 3 gusting 5 10.0
2017-Mar-25 18:25 163 2 gusting 6 10.0
2017-Mar-25 18:20 344 1 gusting 6 9.4
2017-Mar-25 18:15 250 3 gusting 5 9.4
2017-Mar-25 18:10 206 1 gusting 6 9.4
2017-Mar-25 18:05 183 3 gusting 6 9.4
2017-Mar-25 18:00 217 1 gusting 6 9.4
2017-Mar-25 17:55 143 0 gusting 6 8.9
2017-Mar-25 17:50 152 2 gusting 7 8.9
2017-Mar-25 17:45 116 3 gusting 7 8.9
2017-Mar-25 17:40 152 2 gusting 7 8.9
2017-Mar-25 17:35 119 3 gusting 4 8.9
2017-Mar-25 17:30 164 0 gusting 7 8.9
2017-Mar-25 17:25 160 2 gusting 7 8.9
2017-Mar-25 17:20 172 3 gusting 8 8.9
2017-Mar-25 17:15 112 1 gusting 8 8.3
2017-Mar-25 17:10 181 4 gusting 6 8.3
2017-Mar-25 17:05 172 4 gusting 8 8.3
2017-Mar-25 17:00 144 8.3
2017-Mar-25 16:55 179 7.8
2017-Mar-25 16:50 158 5 gusting 8 7.8
2017-Mar-25 16:45 158 3 gusting 8 7.8
2017-Mar-25 16:40 120 4 gusting 7 7.8
2017-Mar-25 16:35 120 4 gusting 7 7.8
2017-Mar-25 16:30 104 3 gusting 6 7.8
2017-Mar-25 16:25 091 1 gusting 7 7.8
2017-Mar-25 16:20 125 1 gusting 7 7.2
2017-Mar-25 16:15 112 3 gusting 8 7.2
2017-Mar-25 16:10 144 4 gusting 10 7.2
2017-Mar-25 16:05 135 4 gusting 10 7.2
2017-Mar-25 16:00 113 4 gusting 8 7.2
2017-Mar-25 15:55 132 3 gusting 8 7.2
2017-Mar-25 15:50 131 3 gusting 8 7.2
2017-Mar-25 15:45 136 5 gusting 9 7.2
2017-Mar-25 15:40 133 6 gusting 9 7.2
2017-Mar-25 15:34 110 3 gusting 7 6.7
2017-Mar-25 15:30 118 2 gusting 7 6.7
2017-Mar-25 15:25 138 6 gusting 8 6.7
2017-Mar-25 15:20 081 1 gusting 8 6.7
2017-Mar-25 15:15 135 6 gusting 7 6.7
2017-Mar-25 15:09 106 3 gusting 8 6.7
2017-Mar-25 15:04 146 2 gusting 8 6.7
2017-Mar-25 14:59 109 4 gusting 9 6.7
2017-Mar-25 14:54 131 4 gusting 9 6.7
2017-Mar-25 14:49 110 2 gusting 9 6.7
2017-Mar-25 14:45 121 2 gusting 7 6.7
2017-Mar-25 14:39 133 4 gusting 8 6.7
2017-Mar-25 14:34 114 4 gusting 8 6.7
2017-Mar-25 14:29 132 4 gusting 7 6.7
2017-Mar-25 14:24 112 0 gusting 6 7.2
2017-Mar-25 14:20 164 1 gusting 7 7.2
2017-Mar-25 14:14 137 0 gusting 7 7.2
2017-Mar-25 14:09 117 4 gusting 7 7.2
2017-Mar-25 14:04 083 1 gusting 9 7.2
2017-Mar-25 13:59 143 3 gusting 9 7.2
2017-Mar-25 13:54 143 3 gusting 9 7.2
2017-Mar-25 13:49 133 4 gusting 9 7.2
2017-Mar-25 13:44 147 1 gusting 7 7.2
2017-Mar-25 13:39 147 6 gusting 7 7.2
2017-Mar-25 13:34 123 0 gusting 7 7.2
2017-Mar-25 13:29 159 4 gusting 6 7.2
2017-Mar-25 13:24 120 7.2
2017-Mar-25 13:19 157 3 gusting 9 7.2
2017-Mar-25 13:14 126 0 gusting 8 7.2
2017-Mar-25 13:09 120 4 gusting 8 7.2
2017-Mar-25 13:04 125 6 gusting 7 7.2
2017-Mar-25 12:59 125 7.2
2017-Mar-25 12:54 140 3 gusting 7 7.2
2017-Mar-25 12:49 172 0 gusting 9 7.2
2017-Mar-25 12:44 165 7 gusting 9 7.2
2017-Mar-25 12:39 159 5 gusting 8 7.2
2017-Mar-25 12:34 052 2 gusting 7 7.2
2017-Mar-25 12:29 155 0 gusting 6 7.2
2017-Mar-25 12:24 120 7.2
2017-Mar-25 12:19 118 1 gusting 9 7.2
2017-Mar-25 12:10 173 1 gusting 10 7.2
2017-Mar-25 12:05 145 7.2
2017-Mar-25 11:59 163 5 gusting 10 7.2
2017-Mar-25 11:49 131 0 gusting 12 7.2
2017-Mar-25 11:40 114 7.2
2017-Mar-25 11:35 109 3 gusting 9 7.2
2017-Mar-25 11:30 094 1 gusting 10 7.2
2017-Mar-25 11:25 134 4 gusting 10 7.2
2017-Mar-25 11:20 113 2 gusting 9 7.2
2017-Mar-25 11:15 160 2 gusting 13 7.2
2017-Mar-25 11:10 136 8 gusting 13 7.2
2017-Mar-25 11:05 147 2 gusting 12 7.2
2017-Mar-25 11:00 160 1 gusting 14 7.2
2017-Mar-25 10:55 145 4 gusting 14 7.2
2017-Mar-25 10:50 122 3 gusting 12 7.2
2017-Mar-25 10:44 122 3 gusting 12 7.2
2017-Mar-25 10:35 122 3 gusting 19 7.2
2017-Mar-25 10:29 233 2 gusting 12 7.2
2017-Mar-25 10:20 163 6 gusting 12 7.2
2017-Mar-25 10:15 132 3 gusting 21 7.2
2017-Mar-25 10:10 112 3 gusting 21 7.2
2017-Mar-25 10:05 079 3 gusting 21 7.2
2017-Mar-25 10:00 150 6 gusting 21 7.2
2017-Mar-25 09:55 127 12 gusting 18 7.2
2017-Mar-25 09:50 145 13 gusting 21 7.2
2017-Mar-25 09:45 147 13 gusting 21 7.2
2017-Mar-25 09:40 127 5 gusting 17 7.2
2017-Mar-25 09:35 133 7 gusting 19 7.2
2017-Mar-25 09:30 104 3 gusting 19 7.2
2017-Mar-25 09:25 113 7 gusting 16 7.2
2017-Mar-25 09:20 124 6 gusting 18 7.2
2017-Mar-25 09:15 122 3 gusting 20 7.2
2017-Mar-25 09:10 160 7 gusting 20 7.2
2017-Mar-25 09:05 091 9 gusting 16 7.2
2017-Mar-25 09:00 141 7 gusting 17 7.2
2017-Mar-25 08:55 089 6 gusting 17 7.2
2017-Mar-25 08:50 086 7 gusting 15 7.2
2017-Mar-25 08:45 122 13 gusting 15 7.2
2017-Mar-25 08:40 156 6 gusting 15 7.2
2017-Mar-25 08:35 105 11 gusting 19 7.2
2017-Mar-25 08:30 108 8 gusting 19 7.2
2017-Mar-25 08:25 114 2 gusting 19 7.2
2017-Mar-25 08:20 085 10 gusting 19 7.2
2017-Mar-25 08:15 125 19 gusting 19 7.2
2017-Mar-25 08:10 147 12 gusting 19 7.2
2017-Mar-25 08:05 129 9 gusting 22 7.2
2017-Mar-25 08:00 156 4 gusting 22 7.2
2017-Mar-25 07:55 139 7 gusting 15 7.2
2017-Mar-25 07:50 106 6 gusting 14 7.2
2017-Mar-25 07:45 161 8 gusting 14 7.2
2017-Mar-25 07:40 087 9 gusting 15 7.2
2017-Mar-25 07:35 114 4 gusting 17 7.2
2017-Mar-25 07:30 120 7 gusting 17 7.2
2017-Mar-25 07:25 135 6 gusting 19 7.2
2017-Mar-25 07:20 117 3 gusting 19 7.2
2017-Mar-25 07:15 131 10 gusting 19 7.2
2017-Mar-25 07:10 121 6 gusting 20 7.2
2017-Mar-25 07:05 106 8 gusting 20 7.2
2017-Mar-25 07:00 136 20 gusting 20 7.2
2017-Mar-25 06:55 129 5 gusting 18 7.2
2017-Mar-25 06:45 127 7 gusting 25 7.2
2017-Mar-25 06:40 110 9 gusting 25 7.2
2017-Mar-25 06:30 139 19 gusting 19 7.2
2017-Mar-25 06:25 104 9 gusting 19 7.8
2017-Mar-25 06:20 079 2 gusting 19 7.8
2017-Mar-25 06:15 131 6 gusting 23 7.8
2017-Mar-25 06:05 135 6 gusting 23 7.8
2017-Mar-25 06:00 143 13 gusting 20 7.8
2017-Mar-25 05:55 087 7 gusting 20 7.8
2017-Mar-25 05:50 077 20 gusting 20 7.8
2017-Mar-25 05:45 105 10 gusting 20 7.8
2017-Mar-25 05:40 141 4 gusting 25 7.8
2017-Mar-25 05:35 081 13 gusting 25 7.8
2017-Mar-25 05:30 060 4 gusting 24 7.8
2017-Mar-25 05:25 126 16 gusting 24 7.8
2017-Mar-25 05:20 082 11 gusting 25 7.8
2017-Mar-25 05:15 121 2 gusting 25 7.8
2017-Mar-25 05:10 054 4 gusting 18 7.8
2017-Mar-25 05:05 102 11 gusting 17 7.8
2017-Mar-25 05:00 115 16 gusting 18 7.8
2017-Mar-25 04:55 160 10 gusting 18 7.8
2017-Mar-25 04:50 102 4 gusting 18 7.8
2017-Mar-25 04:45 105 10 gusting 18 7.8
2017-Mar-25 04:40 106 10 gusting 15 7.8
2017-Mar-25 04:35 137 7 gusting 19 7.8
2017-Mar-25 04:30 136 9 gusting 19 7.8
2017-Mar-25 04:25 112 3 gusting 17 7.8
2017-Mar-25 04:20 089 5 gusting 17 8.3
2017-Mar-25 04:15 104 10 gusting 19 8.3
2017-Mar-25 04:10 100 12 gusting 19 8.3
2017-Mar-25 04:05 122 9 gusting 16 8.3
2017-Mar-25 04:00 120 4 gusting 16 8.3
2017-Mar-25 03:55 133 4 gusting 16 8.3
2017-Mar-25 03:50 025 4 gusting 10 8.3
2017-Mar-25 03:40 079 3 gusting 18 8.3
2017-Mar-25 03:35 114 10 gusting 13 8.3
2017-Mar-25 03:30 147 6 gusting 13 8.3
2017-Mar-25 03:25 105 6 gusting 22 8.9
2017-Mar-25 03:20 103 6 gusting 22 8.9
2017-Mar-25 03:15 113 6 gusting 19 8.9
2017-Mar-25 03:10 114 3 gusting 19 8.9
2017-Mar-25 03:05 123 2 gusting 19 8.9
2017-Mar-25 03:00 108 4 gusting 17 8.9
2017-Mar-25 02:55 123 9 gusting 14 8.9
2017-Mar-25 02:50 166 2 gusting 16 8.9
2017-Mar-25 02:45 153 2 gusting 16 8.9
2017-Mar-25 02:40 119 2 gusting 15 8.9
2017-Mar-25 02:35 132 6 gusting 15 8.9
2017-Mar-25 02:30 120 7 gusting 15 8.9
2017-Mar-25 02:25 129 13 gusting 13 8.9
2017-Mar-25 02:20 073 6 gusting 13 9.4
2017-Mar-25 02:15 102 4 gusting 19 9.4
2017-Mar-25 02:10 143 3 gusting 19 9.4
2017-Mar-25 02:05 118 11 gusting 19 9.4
2017-Mar-25 02:00 101 3 gusting 16 9.4
2017-Mar-25 01:55 098 6 gusting 16 9.4
2017-Mar-25 01:50 109 6 gusting 16 9.4
2017-Mar-25 01:45 098 7 gusting 13 9.4
2017-Mar-25 01:40 121 6 gusting 17 10.0
2017-Mar-25 01:35 117 9 gusting 17 10.0
2017-Mar-25 01:30 077 5 gusting 15 10.0
2017-Mar-25 01:25 106 6 gusting 15 10.0
2017-Mar-25 01:20 085 5 gusting 15 10.0
2017-Mar-25 01:15 012 10.0
2017-Mar-25 01:10 091 11 gusting 21 9.4
2017-Mar-25 01:05 100 6 gusting 19 10.0
2017-Mar-25 01:00 155 5 gusting 19 10.0
2017-Mar-25 00:55 159 11 gusting 24 10.0
2017-Mar-25 00:50 154 4 gusting 24 9.4
2017-Mar-25 00:45 098 21 gusting 21 9.4
2017-Mar-25 00:40 117 5 gusting 19 9.4
2017-Mar-25 00:35 104 4 gusting 20 9.4
2017-Mar-25 00:30 119 9 gusting 20 9.4
2017-Mar-25 00:25 106 4 gusting 17 9.4
2017-Mar-25 00:20 122 9 gusting 26 9.4
2017-Mar-25 00:15 150 4 gusting 26 9.4
2017-Mar-25 00:10 144 12 gusting 16 10.0
2017-Mar-25 00:05 120 7 gusting 16 10.0
2017-Mar-25 00:00 128 6 gusting 23 10.6
2017-Mar-24 23:55 115 12 gusting 23 10.6
2017-Mar-24 23:50 095 8 gusting 19 11.1
2017-Mar-24 23:45 128 9 gusting 19 11.1
2017-Mar-24 23:40 055 1 gusting 15 11.1
2017-Mar-24 23:35 114 11 gusting 16 11.1
2017-Mar-24 23:30 110 2 gusting 16 11.1
2017-Mar-24 23:25 093 4 gusting 17 11.1
2017-Mar-24 23:20 118 13 gusting 17 11.1
2017-Mar-24 23:15 104 6 gusting 15 11.1
2017-Mar-24 23:10 074 9 gusting 18 11.1
2017-Mar-24 23:05 177 6 gusting 18 11.7
2017-Mar-24 22:50 083 6 gusting 17 11.7
2017-Mar-24 22:45 102 13 gusting 17 12.2
2017-Mar-24 22:35 130 8 gusting 13 12.2
2017-Mar-24 22:25 085 5 gusting 17 12.2
2017-Mar-24 22:15 097 8 gusting 24 11.7
2017-Mar-24 22:10 109 6 gusting 19 11.7
2017-Mar-24 22:05 046 3 gusting 19 12.2
2017-Mar-24 22:00 118 7 gusting 23 12.2
2017-Mar-24 21:55 037 2 gusting 23 11.7
2017-Mar-24 21:50 118 7 gusting 20 11.7
2017-Mar-24 21:40 085 3 gusting 19 11.1
2017-Mar-24 21:35 078 10 gusting 15 11.1
2017-Mar-24 21:25 054 7 gusting 17 11.1
2017-Mar-24 21:20 097 1 gusting 17 11.1
2017-Mar-24 21:15 114 8 gusting 15 10.6
2017-Mar-24 21:10 106 1 gusting 15 10.0
2017-Mar-24 21:05 114 4 gusting 15 10.0
2017-Mar-24 21:00 068 9 gusting 15 10.0
2017-Mar-24 20:55 118 3 gusting 15 9.4
2017-Mar-24 20:50 119 6 gusting 13 9.4
2017-Mar-24 20:45 121 8 gusting 13 9.4
2017-Mar-24 20:40 120 1 gusting 12 10.0
2017-Mar-24 20:35 112 11 gusting 13 10.0
2017-Mar-24 20:30 119 5 gusting 13 10.0
2017-Mar-24 20:25 145 13 gusting 13 10.6
2017-Mar-24 20:20 140 5 gusting 9 10.6
2017-Mar-24 20:15 105 3 gusting 19 11.1
2017-Mar-24 20:10 158 3 gusting 19 11.7
2017-Mar-24 20:05 152 7 gusting 16 12.2
2017-Mar-24 20:00 122 12 gusting 19 12.8
2017-Mar-24 19:55 150 11 gusting 19 12.8
2017-Mar-24 19:50 144 8 gusting 17 12.8
2017-Mar-24 19:45 131 8 gusting 15 12.2
2017-Mar-24 19:40 136 4 gusting 18 12.2
2017-Mar-24 19:35 106 13 gusting 22 11.7
2017-Mar-24 19:30 047 3 gusting 22 11.7
2017-Mar-24 19:25 093 12 gusting 13 12.2
2017-Mar-24 19:20 080 6 gusting 15 11.7
2017-Mar-24 19:15 114 11 gusting 15 11.7
2017-Mar-24 19:10 063 6 gusting 15 11.7
2017-Mar-24 19:05 085 2 gusting 13 11.7
2017-Mar-24 19:00 108 1 gusting 15 12.2
2017-Mar-24 18:55 110 4 gusting 16 12.2
2017-Mar-24 18:50 145 5 gusting 16 12.2
2017-Mar-24 18:45 080 5 gusting 14 11.7
2017-Mar-24 18:40 093 6 gusting 15 11.1
2017-Mar-24 18:35 058 7 gusting 19 11.1
2017-Mar-24 18:30 105 4 gusting 22 10.6
2017-Mar-24 18:25 105 2 gusting 22 10.0
2017-Mar-24 18:20 059 4 gusting 21 10.0
2017-Mar-24 18:15 162 6 gusting 18 10.0
2017-Mar-24 18:10 114 13 gusting 15 10.0
2017-Mar-24 18:05 095 1 gusting 20 10.0
2017-Mar-24 18:00 083 3 gusting 20 9.4
2017-Mar-24 17:55 085 2 gusting 18 9.4
2017-Mar-24 17:50 147 7 gusting 18 9.4
2017-Mar-24 17:45 092 3 gusting 20 9.4
2017-Mar-24 17:40 072 6 gusting 20 9.4
2017-Mar-24 17:35 122 10 gusting 17 8.9
2017-Mar-24 17:30 106 11 gusting 17 8.9
2017-Mar-24 17:25 109 9 gusting 11 8.9
2017-Mar-24 17:20 141 8 gusting 12 8.9
2017-Mar-24 17:15 073 2 gusting 12 8.9
2017-Mar-24 17:10 106 1 gusting 14 8.9
2017-Mar-24 17:05 114 8 gusting 14 8.9
2017-Mar-24 17:00 099 6 gusting 12 8.9
2017-Mar-24 16:55 155 6 gusting 15 8.9
2017-Mar-24 16:50 140 3 gusting 15 8.9
2017-Mar-24 16:45 146 6 gusting 12 8.3
2017-Mar-24 16:40 112 6 gusting 9 8.3
2017-Mar-24 16:35 159 2 gusting 18 8.3
2017-Mar-24 16:30 059 1 gusting 18 8.3
2017-Mar-24 16:25 098 3 gusting 9 8.3
2017-Mar-24 16:20 122 2 gusting 10 8.3
2017-Mar-24 16:15 074 1 gusting 10 7.8
2017-Mar-24 16:10 103 0 gusting 6 7.8
2017-Mar-24 16:05 152 7.8
2017-Mar-24 16:00 132 4 gusting 6 7.8
2017-Mar-24 15:55 130 2 gusting 4 7.8
2017-Mar-24 15:50 138 0 gusting 4 7.8
2017-Mar-24 15:45 152 7.8
2017-Mar-24 15:40 166 2 gusting 3 7.2
2017-Mar-24 15:35 138 7.2
2017-Mar-24 15:30 138 2 gusting 2 7.2
2017-Mar-24 15:25 137 7.2
2017-Mar-24 15:20 138 7.2
2017-Mar-24 15:15 138 7.2
2017-Mar-24 15:10 137 7.2
2017-Mar-24 15:05 138 7.2
2017-Mar-24 15:00 137 7.2
2017-Mar-24 14:55 118 0 gusting 4 7.2
2017-Mar-24 14:50 117 2 gusting 7 6.7
2017-Mar-24 14:45 122 0 gusting 7 6.7
2017-Mar-24 14:39 108 6.7
2017-Mar-24 14:34 124 3 gusting 6 6.7
2017-Mar-24 14:30 086 6.7
2017-Mar-24 14:24 132 6.7
2017-Mar-24 14:19 133 0 gusting 3 6.7
2017-Mar-24 14:14 084 0 gusting 3 6.7
2017-Mar-24 14:09 069 6.7
2017-Mar-24 14:05 095 6.7
2017-Mar-24 14:00 095 2 gusting 2 6.7
2017-Mar-24 13:54 094 1 gusting 2 6.7
2017-Mar-24 13:49 094 6.7
2017-Mar-24 13:45 094 0 gusting 2 6.7
2017-Mar-24 13:40 114 6.1
2017-Mar-24 13:35 114 0 gusting 2 6.1
2017-Mar-24 13:29 114 6.1
2017-Mar-24 13:24 114 6.1
2017-Mar-24 13:20 114 6.1
2017-Mar-24 13:14 114 0 gusting 2 6.1
2017-Mar-24 13:09 114 1 gusting 2 6.1
2017-Mar-24 13:04 114 1 gusting 2 6.1
2017-Mar-24 12:59 114 0 gusting 1 6.1
2017-Mar-24 12:54 114 6.1
2017-Mar-24 12:49 114 6.1
2017-Mar-24 12:44 114 6.1
2017-Mar-24 12:39 114 6.1
2017-Mar-24 12:34 114 6.1
2017-Mar-24 12:29 114 5.6
2017-Mar-24 12:24 114 5.6
2017-Mar-24 12:19 114 6.1
2017-Mar-24 12:09 114 6.1
2017-Mar-24 12:04 114 6.1
2017-Mar-24 11:59 114 6.1
2017-Mar-24 11:54 114 6.1
2017-Mar-24 11:45 114 5.6
2017-Mar-24 11:39 114 5.6
2017-Mar-24 11:34 114 1 gusting 2 5.6
2017-Mar-24 11:24 114 5.6
2017-Mar-24 11:14 114 5.6
2017-Mar-24 11:09 114 2 gusting 6 5.6
2017-Mar-24 11:04 111 1 gusting 6 5.6
2017-Mar-24 10:59 144 4 gusting 5 5.6
2017-Mar-24 10:54 109 5.6
2017-Mar-24 10:45 104 5.6
2017-Mar-24 10:40 104 0 gusting 4 5.6
2017-Mar-24 10:34 095 6.1
2017-Mar-24 10:25 154 0 gusting 6 6.1
2017-Mar-24 10:20 111 1 gusting 3 5.6
2017-Mar-24 10:15 120 0 gusting 5 5.6
2017-Mar-24 10:10 164 3 gusting 5 5.6
2017-Mar-24 10:05 151 2 gusting 3 5.6
2017-Mar-24 09:59 115 3 gusting 3 5.6
2017-Mar-24 09:50 118 5.6
2017-Mar-24 09:45 109 0 gusting 4 5.6
2017-Mar-24 09:40 110 5.6
2017-Mar-24 09:35 108 1 gusting 6 5.6
2017-Mar-24 09:30 108 0 gusting 6 5.6
2017-Mar-24 09:25 123 1 gusting 6 5.6
2017-Mar-24 09:20 122 0 gusting 6 5.6
2017-Mar-24 09:15 100 1 gusting 3 5.6
2017-Mar-24 09:10 110 6.1
2017-Mar-24 09:05 112 1 gusting 6 6.1
2017-Mar-24 09:00 110 3 gusting 6 6.1
2017-Mar-24 08:55 074 0 gusting 6 6.1
2017-Mar-24 08:50 119 1 gusting 7 6.1
2017-Mar-24 08:45 135 1 gusting 10 6.1
2017-Mar-24 08:40 104 6.1
2017-Mar-24 08:35 168 3 gusting 10 6.1
2017-Mar-24 08:30 112 3 gusting 10 6.1
2017-Mar-24 08:25 093 6 gusting 8 6.1
2017-Mar-24 08:20 108 4 gusting 8 6.1
2017-Mar-24 08:15 159 2 gusting 7 6.1
2017-Mar-24 08:10 101 3 gusting 7 6.1
2017-Mar-24 08:05 150 1 gusting 7 6.1
2017-Mar-24 08:00 128 4 gusting 7 6.1
2017-Mar-24 07:55 139 2 gusting 8 6.1
2017-Mar-24 07:50 143 6 gusting 8 6.1
2017-Mar-24 07:45 120 4 gusting 10 6.1
2017-Mar-24 07:40 120 2 gusting 10 6.1
2017-Mar-24 07:35 118 5 gusting 10 6.1
2017-Mar-24 07:30 130 0 gusting 10 6.1
2017-Mar-24 07:25 110 4 gusting 12 6.1
2017-Mar-24 07:20 178 3 gusting 12 6.1
2017-Mar-24 07:15 131 6 gusting 8 6.1
2017-Mar-24 07:10 166 2 gusting 10 6.1
2017-Mar-24 07:05 091 3 gusting 13 6.7
2017-Mar-24 07:00 145 4 gusting 15 6.7
2017-Mar-24 06:55 155 7 gusting 15 6.7
2017-Mar-24 06:50 184 11 gusting 12 6.7
2017-Mar-24 06:45 093 8 gusting 12 6.7
2017-Mar-24 06:40 127 6 gusting 10 6.7
2017-Mar-24 06:35 130 5 gusting 12 6.7
2017-Mar-24 06:30 166 6 gusting 12 6.7
2017-Mar-24 06:25 126 8 gusting 13 6.7
2017-Mar-24 06:20 147 6 gusting 13 6.7
2017-Mar-24 06:10 120 2 gusting 13 6.7
2017-Mar-24 06:05 150 3 gusting 13 6.7
2017-Mar-24 06:00 116 3 gusting 12 6.7
2017-Mar-24 05:55 154 4 gusting 10 6.7
2017-Mar-24 05:50 185 1 gusting 11 6.7
2017-Mar-24 05:40 158 6 gusting 12 6.7
2017-Mar-24 05:35 170 3 gusting 12 6.7
2017-Mar-24 05:25 137 0 gusting 12 7.2
2017-Mar-24 05:20 087 0 gusting 12 7.2
2017-Mar-24 05:15 141 7.2
2017-Mar-24 05:05 125 6 gusting 17 7.2
2017-Mar-24 05:00 145 6 gusting 17 7.2
2017-Mar-24 04:55 097 10 gusting 13 7.2
2017-Mar-24 04:50 137 6 gusting 13 7.2
2017-Mar-24 04:45 216 0 gusting 13 7.2
2017-Mar-24 04:40 114 5 gusting 13 7.2
2017-Mar-24 04:35 108 4 gusting 13 7.8
2017-Mar-24 04:30 152 3 gusting 13 7.8
2017-Mar-24 04:25 118 9 gusting 15 7.8
2017-Mar-24 04:20 076 2 gusting 15 7.8
2017-Mar-24 04:15 101 6 gusting 13 7.8
2017-Mar-24 04:10 118 6 gusting 13 7.8
2017-Mar-24 04:05 118 4 gusting 13 7.8
2017-Mar-24 04:00 117 8 gusting 15 7.8
2017-Mar-24 03:55 128 12 gusting 15 7.8
2017-Mar-24 03:50 129 2 gusting 13 7.8
2017-Mar-24 03:45 091 6 gusting 11 7.8
2017-Mar-24 03:40 126 2 gusting 13 7.8
2017-Mar-24 03:35 101 8 gusting 13 7.8
2017-Mar-24 03:30 127 5 gusting 12 8.3
2017-Mar-24 03:25 104 1 gusting 13 8.3
2017-Mar-24 03:20 149 8 gusting 13 8.3
2017-Mar-24 03:15 114 3 gusting 14 8.3
2017-Mar-24 03:10 125 10 gusting 14 8.3
2017-Mar-24 03:05 137 6 gusting 12 8.3
2017-Mar-24 03:00 114 2 gusting 12 8.3